Location: Chlum
(49.8724°N, 15.0004°E)
Time: 19:09:41
(UTC+00:00)

Daily predictions for brighter satellites

Satellite Brightness Start Highest point End
(mag) Time Altitude Azimuth Time Altitude Azimuth Time Altitude Azimuth
Gbstr 26 Del rocket 4.4 18:52:58 10° WSW 19:01:00 80° SSE 19:08:04 10° ENE
USA 306 3.8 19:00:13 10° WNW 19:04:22 47° N 19:08:31 10° ENE
MOS 1 4.5 19:03:29 10° SSE 19:09:09 81° WSW 19:14:53 10° NNW
Cosmos 1782 4.4 19:08:28 10° SE 19:11:17 19° E 19:14:07 10° NE
MOS 1-B Rocket 4.5 19:03:23 10° NNE 19:11:18 82° ESE 19:17:57 10° SSW
ERS-1 Rocket 4.4 19:11:35 10° ESE 19:15:28 23° ENE 19:19:22 10° N
SPOT 5 4.4 19:14:12 10° ESE 19:18:14 24° ENE 19:22:24 10° N
SJ-6B 4.3 19:16:47 10° SSW 19:20:23 37° W 19:24:06 10° NNW
ERBS 4.3 19:21:06 10° WNW 19:24:02 28° NNW 19:26:59 10° NE
Cosmos 1151 Rocket 4.1 19:21:41 10° SSE 19:25:23 28° E 19:29:08 10° NNE
Cosmos 2278 Rocket 3.9 19:24:02 10° SE 19:26:41 14° E 19:29:21 10° ENE
USA 290 2.3 19:23:58 10° NNW 19:27:13 68° ENE 19:30:10 12° SSE
Terra 3.5 19:23:58 10° ESE 19:27:22 20° ENE 19:30:46 10° NNE
Cosmos 1602 4.3 19:24:04 10° N 19:27:44 41° ENE 19:31:09 12° SE
Meteor 1-25 Rocket 4.4 19:22:27 10° N 19:28:18 70° ENE 19:34:08 10° SSE
USA 307 3.8 19:25:36 10° WNW 19:29:45 49° N 19:33:56 10° E
Ariane Rocket 3.7 19:25:05 10° S 19:30:02 56° W 19:35:02 10° NNW
CREW DRAGON DEMO-1 DEB 3.1 19:28:09 10° W 19:30:46 54° N 19:33:23 10° E
Cosmos 2263 Rocket 4.2 19:28:51 10° WSW 19:33:50 33° NW 19:38:55 10° NNE
CZ-2C R/B 4.1 19:29:41 10° NNE 19:33:57 43° E 19:38:15 10° S
Cosmos 1606 3.4 19:32:21 10° SSW 19:36:03 56° WNW 19:39:49 10° N
Cosmos 1844 Rocket 2.6 19:32:46 10° SSW 19:38:20 80° ESE 19:43:57 10° NNE
SPOT 1/Viking Rocket 3.7 19:36:09 11° SSE 19:41:12 65° ENE 19:46:22 10° N
SL-4 R/B 3.7 19:38:12 10° W 19:41:56 27° SW 19:45:35 11° SSE
Cosmos 1805 Rocket 4.0 19:37:50 10° NNW 19:42:09 62° W 19:46:25 10° S
MetOp-B 4.1 19:37:08 10° SSE 19:42:29 82° ENE 19:47:53 10° NNW
USA 308 3.7 19:39:06 10° WNW 19:43:18 51° N 19:47:30 10° E
X-37B 1.5 19:43:12 10° WSW 19:46:07 32° S 19:47:53 18° SE
ARIANE 5 R/B 3.0 19:43:07 14° SE 19:46:35 48° ENE 19:50:47 10° N
Cosmos 1354 Rocket 4.2 19:41:55 10° S 19:46:56 50° ESE 19:52:00 10° NNE
Cosmos 1633 Rocket 3.1 19:46:17 10° N 19:50:40 65° ENE 19:54:18 15° SSE
Cosmos 1745 Rocket 4.3 19:44:53 10° NNW 19:51:04 68° W 19:57:09 10° S
Cosmos 1709 Rocket 3.9 19:47:48 10° N 19:53:58 80° E 19:59:47 11° SSE
SPOT 3 Rocket 3.9 19:49:40 10° S 19:54:47 64° WSW 19:59:56 10° NNW
Cosmos 1437 3.6 19:54:18 22° SE 19:55:09 25° E 19:57:35 10° NE
Landsat 7 4.1 19:52:51 10° S 19:57:35 67° WSW 20:02:21 10° NNW
Cosmos 1812 3.9 19:56:30 19° SE 19:58:15 26° E 20:01:30 10° NNE
Cosmos 1844 3.7 19:52:50 10° SSW 19:58:35 89° NW 20:04:17 10° NNE
Cosmos 968 Rocket 4.2 19:54:10 10° SW 19:59:21 59° WNW 20:04:32 10° NNE
Cosmos 1470 Rocket 4.0 19:55:27 10° N 19:59:48 48° ENE 20:02:47 19° SE
ATLAS 5 CENTAUR R/B 2.4 19:55:05 10° NW 20:00:34 72° SW 20:05:41 17° SSE
NOSS 3-3 (A) 4.2 19:58:04 10° S 20:03:26 43° ESE 20:09:32 10° NE
Cosmos 1328 Rocket 3.8 19:59:49 14° S 20:03:32 53° E 20:07:52 10° NNE
NOSS 3-3 (C) 4.2 19:58:10 10° S 20:03:33 42° ESE 20:09:38 10° NE
Akebono 4.2 20:01:31 10° NNW 20:04:09 55° ENE 20:04:50 34° SE
ATLAS 2AS CENTAUR R/B 3.9 19:58:39 10° NW 20:05:42 39° NNE 20:12:17 10° E
BREEZE M DEB (TANK) 4.5 20:01:39 10° WSW 20:06:05 85° S 20:23:04 10° E
Meteor 1-26 Rocket 4.2 20:03:39 10° S 20:09:20 78° E 20:14:55 10° NNE
CARTOSAT-1 3.5 20:07:01 19° SSE 20:10:03 73° ENE 20:14:23 10° N
Cosmos 1833 Rocket 3.0 20:04:28 10° NNW 20:10:05 57° NE 20:14:00 20° SE
Meteor 1-14 Rocket 4.3 20:05:52 10° N 20:11:50 77° ENE 20:16:14 18° SSE
Cosmos 2315 Rocket 4.0 20:05:39 10° S 20:12:00 78° E 20:18:24 10° NNE
CRYOSAT 2 4.4 20:07:53 12° S 20:12:24 84° W 20:17:20 10° N
BREEZE-M R/B 1.8 20:11:55 10° WSW 20:14:18 49° SSE 20:15:12 30° ESE
Cosmos 1933 Rocket 4.0 20:10:11 10° N 20:14:22 44° ENE 20:16:40 23° SE
Cosmos 1666 3.4 20:12:16 10° N 20:15:47 37° ENE 20:17:20 25° ESE
Cosmos 1666 Rocket 4.0 20:11:53 10° NNW 20:16:15 59° W 20:19:58 13° S
USA 215 4.1 20:11:17 10° E 20:17:32 50° N 20:23:47 10° WNW
Cosmos 1538 Rocket 4.3 20:14:57 10° NNW 20:20:17 57° ENE 20:23:35 23° SE
Cosmos 1933 4.5 20:19:20 10° SSW 20:23:12 44° WNW 20:27:05 10° N
USA 245 3.3 20:23:48 25° SW 20:24:37 34° W 20:26:43 10° NNW
USA 305 3.2 20:21:16 10° WNW 20:25:32 66° NNE 20:28:37 18° E
Iridium 4 Rocket 4.0 20:22:03 21° SSE 20:25:43 53° E 20:31:27 10° N
Cosmos 1242 Rocket 3.8 20:25:22 10° SW 20:28:47 41° WNW 20:32:11 10° N
Cosmos 158 Rocket 4.5 20:28:24 10° NNW 20:33:05 44° ENE 20:35:40 24° ESE
Cosmos 773 Rocket 4.2 20:28:22 10° NNW 20:33:39 68° WSW 20:37:01 22° S
BREEZE M DEB (TANK) 1.5 20:29:36 10° W 20:33:40 64° SSW 20:34:07 50° SE
Resurs 01 Rocket 3.7 20:31:06 10° SW 20:34:40 23° W 20:38:15 10° NW
Spot 2 Rocket 3.9 20:34:12 17° S 20:37:57 57° WSW 20:42:56 10° NNW
SJ 16-02 2.0 20:38:19 30° SE 20:39:31 36° ESE 20:43:35 10° NE
COSMOS 2406 3.2 20:34:47 10° NNW 20:40:30 90° ENE 20:43:43 27° SSE
Cosmos 2228 Rocket 3.9 20:40:06 28° SE 20:41:21 34° E 20:45:23 10° NNE
Cosmos 2082 Rocket 2.6 20:37:46 10° NNW 20:43:18 55° NE 20:46:29 25° ESE
USA 306 3.0 20:40:24 10° WNW 20:44:41 77° NNE 20:47:01 26° ESE
Meteor 2-6 Rocket 4.1 20:41:14 22° S 20:44:46 70° E 20:50:16 10° NNE
Cosmos 1500 3.8 20:41:34 10° NNW 20:45:15 50° W 20:47:10 24° SSW
CZ-4C R/B 3.0 20:38:53 10° NW 20:46:00 79° SW 20:51:18 25° SSE
Cosmos 1782 3.9 20:43:28 10° SSW 20:47:17 43° WNW 20:51:07 10° N
Gbstr 26 Del rocket 4.4 20:40:56 10° W 20:48:41 76° N 20:55:11 10° E
ERS-1 Rocket 3.3 20:50:52 24° S 20:53:53 61° W 20:58:52 10° NNW
deb Kosmos-1763 3.8 20:50:56 10° NNW 20:54:29 89° NE 20:55:19 50° SSE
SL-24 DEB 4.3 20:53:26 34° SSE 20:55:18 64° E 20:59:52 10° N
SPOT 5 3.3 20:52:52 24° S 20:55:52 61° W 21:01:06 10° NNW
H-2A R/B 3.4 20:51:59 10° NNE 20:56:11 70° ESE 20:57:49 36° S
Meteor 1-11 Rocket 3.9 20:53:42 10° N 20:59:43 74° ENE 21:02:44 31° SSE
Cosmos 1271 Rocket 2.8 21:00:22 43° SSE 21:01:30 67° E 21:05:30 10° NNE
Cosmos 1777 Rocket 4.0 20:58:39 14° SSW 21:03:11 83° WNW 21:08:26 10° NNE
Terra 2.0 21:02:23 30° S 21:04:39 67° WSW 21:09:25 10° NNW
CREW DRAGON DEMO-1 DEB 3.1 21:02:34 10° WNW 21:04:38 49° W 21:04:38 49° W
Cosmos 2278 Rocket 2.1 21:05:44 19° SSW 21:09:48 77° ESE 21:15:29 10° NNE
USA 307 2.8 21:05:43 10° WNW 21:10:01 86° SSW 21:11:26 42° ESE
Cosmos 1340 Rocket 3.5 21:09:18 10° N 21:13:13 43° ENE 21:14:05 37° ESE
Cosmos 923 Rocket 4.1 21:08:09 10° NNW 21:13:25 70° ENE 21:15:32 36° SE
Cosmos 1898 Rocket 4.4 21:17:25 30° ESE 21:18:08 31° E 21:22:46 10° NE
Cosmos 1515 Rocket 4.4 21:17:35 19° SW 21:20:28 46° WNW 21:24:44 10° N
Cosmos 1544 3.2 21:17:06 10° N 21:20:38 55° ENE 21:20:56 53° E
Cosmos 2369 Rocket 4.3 21:21:42 11° E 21:21:44 11° E 21:23:14 10° ENE
X-37B 3.4 21:20:04 10° WSW 21:20:09 10° WSW 21:20:09 10° WSW
Cosmos 1869 Rocket 3.4 21:18:23 10° N 21:22:44 86° W 21:23:54 49° S
Cosmos 2084 3.6 21:18:45 10° SW 21:22:54 70° NW 21:27:11 10° NE
Cosmos 1536 2.7 21:18:55 10° N 21:23:00 84° E 21:23:48 56° SSE
USA 308 2.8 21:19:11 10° WNW 21:23:30 75° SSW 21:24:24 53° SE
Meteor 1-10 Rocket 4.3 21:22:59 24° SSW 21:26:23 73° WNW 21:32:04 10° N
Cosmos 2154 Rocket 4.0 21:23:39 10° NNW 21:30:00 78° W 21:33:02 33° S
Cosmos 1943 Rocket 3.4 21:30:26 24° ESE 21:30:47 25° ESE 21:35:14 10° NE
Cosmos 1812 4.5 21:31:31 16° WSW 21:33:57 28° WNW 21:37:21 10° N
Cosmos 1975 4.3 21:32:33 10° NNE 21:35:51 24° ENE 21:36:27 23° E
ALOS 2 3.6 21:38:42 31° E 21:39:48 37° ENE 21:43:51 10° N
Cosmos 44 3.8 21:34:37 10° NW 21:40:03 62° NE 21:42:24 33° ESE
Cosmos 990 Rocket 4.1 21:40:02 45° SSE 21:41:13 56° ESE 21:46:22 10° NNE
Cosmos 1707 Rocket 3.6 21:42:54 55° SE 21:43:30 62° E 21:47:51 10° NNE
NOSS 3-4 (A) 3.9 21:36:47 10° NW 21:43:40 66° SW 21:47:02 35° SSE
NOSS 3-4 (C) 3.9 21:36:53 10° NW 21:43:46 67° SW 21:47:09 35° SSE
ATLAS 5 CENTAUR R/B 4.3 21:41:05 10° WNW 21:44:41 17° WSW 21:47:13 13° SW
Cosmos 962 Rocket 4.4 21:43:17 10° N 21:49:27 89° E 21:51:48 41° S
Cosmos 2112 Rocket 4.0 21:46:52 10° NNW 21:52:15 88° WSW 21:53:50 48° SSE
Cosmos 1833 Rocket 4.0 21:48:56 10° NW 21:53:40 28° WSW 21:55:42 22° SW
SL-24 R/B - RUBIN 2 4.0 21:49:21 10° NW 21:55:00 79° NE 21:56:38 44° SE
Nadezhda 1 Rocket 4.3 21:51:52 27° SSW 21:55:26 64° WNW 22:01:40 10° N
Cosmos 1238 Rocket 3.9 21:49:22 10° N 21:55:50 74° ENE 21:57:51 43° SSE
Cosmos 1743 2.6 21:52:49 10° NNW 21:56:41 76° W 21:56:52 73° SW
ATLAS 2AS CENTAUR R/B 2.7 21:49:57 10° NW 21:57:26 83° SW 22:00:31 37° SSE
SeaSat 1 4.1 21:55:27 10° ENE 21:58:33 19° E 21:58:33 19° E
USA 215 3.3 21:55:02 18° ESE 22:00:11 78° NNE 22:06:45 10° WNW
BREEZE-M DEB (TANK) 3.2 21:58:18 10° W 22:03:54 56° N 22:04:41 39° NE
Cosmos 2297 3.8 22:03:58 47° SSE 22:05:14 57° ESE 22:10:49 10° NE
USA 305 3.7 22:01:22 10° WNW 22:04:41 37° WSW 22:04:41 37° WSW
Cosmos 2181 Rocket 4.0 22:07:22 43° SSE 22:09:24 68° E 22:15:30 10° NNE
Cosmos 1733 Rocket 2.9 22:11:15 10° NNW 22:15:35 73° W 22:16:02 66° SW
SJ 16-02 3.0 22:15:14 16° WSW 22:18:08 30° WNW 22:22:06 10° N
Cosmos 1680 Rocket 4.0 22:15:14 10° NNW 22:20:20 47° WSW 22:21:27 41° SW
Cosmos 2341 Rocket 4.2 22:14:25 10° NNW 22:20:45 64° W 22:23:08 39° SSW
Cosmos 2366 rocket 3.9 22:15:51 10° N 22:22:03 89° E 22:24:07 45° S
USA 306 4.3 22:20:36 10° WNW 22:23:05 26° WSW 22:23:05 26° WSW
Cosmos 1937 Rocket 3.4 22:24:06 57° S 22:25:07 76° ESE 22:30:18 10° NNE
Cosmos 1818 3.5 22:20:34 10° NW 22:26:06 89° NE 22:27:40 49° SE
Thor Agena Rocket 4.1 22:22:01 10° NNE 22:26:59 42° E 22:27:48 39° ESE
Cosmos 2082 Rocket 3.3 22:22:20 10° NW 22:27:06 29° WSW 22:28:19 26° SW
Cosmos 1908 Rocket 3.8 22:22:54 10° N 22:27:21 59° ENE 22:27:56 54° ESE
Cosmos 967 Rocket 4.4 22:27:44 45° S 22:29:39 68° ESE 22:35:54 10° NE
CZ-4C R/B 4.4 22:28:22 10° WNW 22:34:00 23° WSW 22:36:28 20° SW
Cosmos 1900 4.3 22:33:47 60° S 22:34:33 71° SE 22:39:36 10° NE
Gbstr 26 Del rocket 3.9 22:29:01 10° WNW 22:36:16 84° SSW 22:40:00 25° ESE
ERBS 3.1 22:34:13 10° NW 22:37:05 50° N 22:37:05 50° N
Nimbus 7 Rocket 4.4 22:32:03 10° NNE 22:37:54 65° ESE 22:39:29 47° SSE
Cosmos 858 Rocket 4.4 22:37:14 54° SSW 22:38:29 88° WNW 22:43:45 10° NNE
Cosmos 2218 Rocket 4.1 22:33:48 10° NNW 22:40:01 69° W 22:42:06 43° SSW
Meteor 1-19 Rocket 4.1 22:40:49 50° SSW 22:42:16 79° WNW 22:47:42 10° N
USA 281 4.5 22:36:28 10° ESE 22:42:17 35° NE 22:48:08 10° NNW
Okean 1 3.9 22:46:34 44° W 22:46:55 46° WNW 22:50:48 10° N
Cosmos 489 Rocket 4.5 22:41:23 10° NNW 22:47:34 69° WSW 22:49:22 47° S
Cosmos 1461 3.5 22:53:28 50° ESE 22:53:28 50° ESE 22:57:48 10° NE
Cosmos 2278 Rocket 4.1 22:49:52 10° W 22:54:32 25° NW 22:59:13 10° NNE
Cosmos 1703 Rocket 3.5 22:57:18 68° ESE 22:57:33 70° E 23:01:56 10° NNE
Cosmos 1862 Rocket 4.2 22:57:00 41° WSW 22:57:40 44° WNW 23:01:51 10° N
Cosmos 1782 Rocket 3.6 22:54:18 10° N 22:58:46 69° ENE 22:59:17 62° ESE
Cosmos 1898 Rocket 4.3 22:57:39 28° WSW 23:00:02 46° WNW 23:05:11 10° NNE
Nadezhda 3 Rocket 4.1 23:02:11 43° SSE 23:04:11 66° E 23:10:21 10° NNE
Cosmos 1378 4.0 23:04:38 41° ENE 23:04:38 41° ENE 23:07:49 10° NNE
Cosmos 2369 Rocket 2.2 23:03:27 52° SSE 23:04:38 67° ESE 23:10:15 10° NNE
COBE Rocket 4.3 23:07:04 45° SW 23:07:52 49° W 23:12:51 10° NNW
RESURS DK-1 2.6 23:05:08 10° NNW 23:09:18 63° ENE 23:09:53 55° E
Gblst 52 Del rocket 4.3 23:04:05 10° WNW 23:10:48 75° SSW 23:14:42 23° ESE
Meteor 1-13 Rocket 4.4 23:09:32 45° SE 23:10:54 58° E 23:16:21 10° NNE
Meteor 1-12 Rocket 4.3 23:05:17 10° N 23:11:14 78° ENE 23:13:07 45° SSE
Cosmos 1975 3.9 23:08:46 10° NNW 23:12:12 33° W 23:12:12 33° W
SL-27 R/B 3.2 23:10:24 10° NNW 23:13:17 47° NE 23:13:17 47° NE
Cosmos 1943 Rocket 2.4 23:11:55 37° SW 23:14:05 64° WNW 23:19:41 10° NNE
Cosmos 1805 4.2 23:10:25 10° N 23:14:06 39° ENE 23:14:33 37° E
Cosmos 2084 Rocket 4.4 23:10:10 10° NW 23:13:20 36° W 23:13:20 36° W
ALOS 2 3.9 23:16:05 28° W 23:16:12 28° W 23:20:00 10° NW
Cosmos 1733 4.4 23:12:46 10° N 23:16:14 33° ENE 23:16:42 32° E
PSLV R/B 3.6 23:13:38 10° NNE 23:18:04 66° ESE 23:18:26 62° SE
Cosmos 1867 3.9 23:18:57 44° SE 23:19:37 47° ESE 23:24:51 10° NE
Cosmos 1607 4.3 23:19:25 43° SSE 23:21:03 53° ESE 23:27:20 10° NE
DNEPR-1 R/B 4.2 23:19:56 36° WSW 23:22:11 70° NW 23:27:02 10° NE
Meteor 2-4 Rocket 3.9 23:20:31 43° SW 23:22:19 65° WNW 23:27:58 10° N
Cosmos 468 4.4 23:17:24 10° NNW 23:22:42 79° WSW 23:23:50 55° S
Cosmos 2263 4.2 23:22:37 50° S 23:24:04 69° ESE 23:29:51 10° NNE
EO 1 Del DPAF 3.2 23:24:03 10° NNE 23:27:38 73° ENE 23:27:38 73° ENE
Cosmos 1066 Rocket 4.4 23:26:45 44° SSE 23:28:27 63° E 23:34:05 10° NNE
Okean 3 3.4 23:28:08 71° SE 23:28:27 75° E 23:32:43 10° NNE
Okean 1-7 3.2 23:30:15 54° WSW 23:30:39 57° WNW 23:34:53 10° N
Cosmos 372 Rocket 4.4 23:30:36 39° WSW 23:32:11 55° WNW 23:37:12 10° NNE
ATLAS CENTAUR R/B 2.6 23:33:01 26° E 23:33:01 26° E 23:35:29 10° ENE
Helios 1A 3.4 23:31:38 45° ESE 23:32:30 55° ENE 23:36:35 10° N
Sich 1 Rocket 3.6 23:30:11 10° N 23:34:47 80° ENE 23:35:34 61° SSE
SeaSat 1 2.5 23:32:00 10° NNE 23:36:57 77° WNW 23:38:19 48° SW
Cosmos 1125 Rocket 3.6 23:35:51 50° SSE 23:36:57 63° ESE 23:42:08 10° NNE
Cosmos 494 Rocket 3.9 23:33:51 10° NNW 23:39:04 76° WSW 23:40:14 54° S
USA 81 4.4 23:35:12 10° N 23:40:26 57° E 23:42:25 36° SE
Cosmos 1656 Rocket 3.5 23:39:04 51° SSW 23:40:28 79° ESE 23:46:02 10° NNE
Cosmos 2242 Rocket 4.3 23:40:21 39° W 23:41:04 42° WNW 23:45:20 10° N
USA 215 3.6 23:42:21 40° SSW 23:43:32 43° SW 23:49:43 10° WNW
Cosmos 1833 4.2 23:40:19 10° NW 23:46:01 64° WSW 23:47:33 46° S
ATLAS 2AS CENTAUR R/B 4.0 23:42:11 10° WNW 23:47:18 21° WSW 23:47:56 21° WSW
CZ-2D R/B 3.5 23:46:51 10° NE 23:51:32 29° E 23:53:55 21° SE
Cosmos 2297 Rocket 4.1 23:47:49 10° NNW 23:52:40 28° NE 23:57:30 10° ESE
